Theta_e
346 352 359 362 363 350 356 354 356 359 356 346 346 350 351 352 353 351 350 348 347 351 351 351 350 352 352 351 351 351 350 351 350 350 352 352 352 352 353 352 352 350 350 350 349 350 350 349 346
347 359 362 367 365 350 351 349 356 357 349 348 347 350 352 354 351 350 351 347 348 348 346 346 345 347 351 352 352 352 352 351 352 352 349 353 351 352 352 353 352 353 350 349 349 349 350 350 347
356 360 364 370 360 352 356 354 359 357 353 349 349 346 350 353 348 348 351 348 348 343 342 352 351 351 352 352 352 352 352 352 352 351 352 352 353 353 350 352 352 353 352 351 349 349 348 346 343
351 356 360 363 356 353 354 356 355 353 347 345 345 349 345 346 348 350 350 346 342 339 344 351 350 349 349 348 349 351 352 351 350 352 351 353 352 352 352 350 352 352 352 351 351 351 348 345 349
348 353 358 348 352 350 350 353 352 350 348 348 347 349 347 346 348 349 347 345 335 338 343 346 345 348 346 348 348 346 349 352 351 352 352 353 353 353 351 351 350 353 350 351 350 351 351 347 344
344 346 352 350 353 352 350 351 349 348 347 347 347 346 344 347 348 348 347 344 333 330 337 341 343 343 346 347 347 345 342 343 351 352 352 352 353 353 352 354 352 351 353 353 350 346 342 342 342
345 344 347 350 354 354 350 349 348 348 348 347 343 347 341 346 346 346 347 345 335 335 337 336 337 345 346 344 341 344 343 340 342 348 351 351 352 352 352 352 353 352 350 351 352 350 342 343 340
342 345 348 348 353 353 349 348 349 349 351 343 341 345 345 344 344 346 346 345 334 335 335 334 334 339 339 344 348 347 347 342 339 337 344 349 351 351 352 347 351 352 353 352 354 349 344 339 333
340 345 349 351 351 352 349 349 347 347 346 344 343 341 340 345 346 346 346 345 343 341 334 335 336 338 341 344 349 352 350 350 346 337 338 347 347 349 349 346 352 351 351 351 351 351 344 337 333
341 340 343 343 344 347 351 350 349 349 348 344 342 340 341 347 346 345 346 347 346 342 337 333 333 340 343 346 343 345 348 347 343 345 344 346 348 348 348 349 351 352 352 350 350 349 346 344 339
342 343 343 343 346 348 350 349 347 348 348 344 343 341 338 345 344 343 346 346 346 343 345 342 343 346 341 346 345 345 346 346 343 344 347 347 348 348 348 349 351 350 349 350 349 345 346 343 340
342 342 344 346 346 347 350 349 350 348 346 342 341 339 338 336 342 344 345 345 345 346 346 345 345 346 348 347 348 349 351 348 345 345 347 347 349 348 346 348 348 347 345 342 343 345 347 344 345
343 345 346 345 347 348 348 349 349 348 344 342 340 340 338 337 340 342 342 342 341 343 345 346 346 347 348 349 349 348 349 348 348 347 349 345 347 349 348 348 347 348 348 348 347 348 348 348 349
347 349 347 346 345 342 349 348 347 347 343 343 343 344 345 343 342 343 345 344 342 342 345 346 347 347 349 350 350 351 349 349 348 345 347 346 347 346 349 349 349 349 348 348 347 349 348 348 348
346 348 346 346 348 345 341 347 349 345 346 349 349 350 346 347 344 344 345 345 344 343 345 347 348 348 349 348 348 348 347 345 348 348 346 346 345 346 343 345 349 349 350 349 349 349 349 349 348
342 340 344 348 346 347 340 343 341 348 351 351 350 349 347 346 345 344 344 345 345 344 347 348 348 346 347 346 348 350 349 348 346 343 342 342 343 342 342 343 346 349 351 350 350 350 350 351 350
338 342 343 347 349 348 341 338 343 347 351 352 348 350 348 347 344 342 343 346 346 347 348 347 350 349 348 346 345 346 349 344 344 346 344 342 343 343 344 346 346 349 351 349 349 350 350 350 350
341 340 341 344 346 346 345 345 347 344 353 353 350 341 348 348 343 339 344 345 342 344 343 338 349 350 349 348 346 349 350 349 349 350 350 350 348 347 349 351 350 351 352 350 350 349 349 350 349
339 338 340 340 345 347 347 348 347 341 347 354 353 343 344 344 342 340 341 342 340 343 343 338 348 349 350 350 349 349 350 349 350 351 351 351 347 346 348 351 350 351 352 352 352 352 351 351 353
340 340 340 340 340 345 350 349 347 347 343 341 350 349 345 345 343 343 341 341 341 337 343 344 348 339 347 351 350 351 351 351 351 351 350 351 349 349 350 351 351 350 351 350 352 352 352 352 351
340 339 339 341 341 340 346 344 349 347 348 347 345 349 346 345 345 344 341 342 339 340 346 347 350 350 350 350 351 352 353 352 351 350 350 351 344 345 349 352 352 352 351 345 349 351 353 352 351
340 338 339 340 339 340 337 334 352 348 343 342 346 350 347 345 345 344 341 341 339 336 340 348 351 352 352 351 355 353 353 352 351 350 347 341 340 341 349 350 352 351 353 352 352 352 352 353 351
338 338 337 336 333 335 338 336 339 344 339 340 350 351 348 346 343 346 343 343 340 341 340 349 354 353 351 353 355 354 353 351 349 338 345 349 345 347 350 351 350 351 353 354 353 353 354 353 353
339 338 333 331 331 334 335 336 338 344 340 339 338 343 348 348 342 345 345 345 345 345 342 348 354 353 353 354 355 355 352 353 350 351 352 353 351 353 353 350 351 352 354 354 354 353 353 352 353
336 328 331 333 334 335 336 344 347 343 341 340 339 344 345 348 348 346 347 348 348 345 344 356 355 358 358 357 355 356 354 353 352 353 352 353 352 349 349 351 351 350 348 350 352 354 353 354 354
338 333 331 337 335 334 334 353 349 346 342 340 340 344 350 351 351 350 349 349 350 347 355 357 359 358 358 358 356 354 352 351 351 349 346 343 343 342 342 342 342 342 342 341 343 346 350 351 349
334 329 326 328 328 338 349 351 348 344 344 341 344 347 349 356 360 358 356 358 358 359 358 358 357 357 357 354 352 351 349 346 342 339 338 336 335 334 333 333 333 334 334 335 338 339 340 341 342
330 327 330 323 333 359 355 353 357 348 347 348 350 347 359 360 358 357 357 357 358 359 359 358 357 355 353 350 347 340 335 335 334 333 331 331 331 330 331 331 331 331 332 333 334 335 335 336 338
326 327 324 322 325 350 356 348 346 347 347 350 349 348 359 359 357 356 354 356 357 356 356 354 351 347 343 338 334 333 332 332 331 332 333 333 332 332 333 333 332 332 333 333 333 333 334 334 335
323 325 322 323 327 326 339 345 342 342 342 350 351 346 352 356 355 352 351 349 350 350 347 342 340 337 334 333 332 332 333 332 333 333 332 332 332 333 333 333 333 333 334 334 333 332 331 331 331
Wind_Speed
4 5 6 2 4 5 1 3 5 5 5 4 10 8 9 9 2 5 24 25 30 26 22 20 20 19 18 17 16 15 14 13 14 15 13 14 15 17 17 17 17 17 17 17 16 17 18 18 18
7 6 1 1 4 3 2 5 6 7 14 13 13 11 12 5 9 16 17 33 31 27 23 21 19 19 18 17 16 16 13 12 12 14 14 13 15 15 16 16 16 16 16 16 15 16 15 16 16
7 5 2 3 2 3 6 6 15 11 7 9 5 9 5 8 14 10 28 34 30 27 26 21 21 19 17 16 14 15 14 12 12 13 14 13 13 14 14 15 16 15 15 15 14 15 15 16 17
5 1 2 2 8 2 14 17 18 15 13 16 14 9 6 16 14 22 34 34 30 28 25 21 19 17 16 15 14 13 13 14 12 12 13 14 13 14 13 13 14 14 14 13 13 13 14 15 15
3 1 2 1 4 3 10 16 14 17 9 15 15 9 6 14 32 41 37 32 31 28 24 21 19 18 16 14 13 13 12 14 12 12 12 13 12 13 13 14 13 13 13 13 13 12 13 15 14
1 2 3 3 5 3 6 15 16 16 15 17 16 12 4 29 39 36 37 34 32 32 26 22 19 17 16 15 13 12 12 11 12 12 11 12 11 12 13 12 13 13 13 12 11 10 10 11 12
2 4 1 7 7 3 11 17 16 17 18 10 13 11 8 24 31 33 36 33 31 29 27 23 20 17 15 14 14 12 11 11 11 11 10 10 11 10 11 12 12 13 14 13 12 12 12 10 12
4 5 4 2 5 2 9 6 16 19 6 16 16 6 16 24 31 30 32 32 31 28 25 23 20 18 16 15 13 12 11 10 10 11 11 9 9 10 10 10 11 11 12 12 12 11 11 9 9
5 5 4 4 5 4 8 16 8 12 19 9 2 11 16 35 35 31 25 23 27 25 23 22 21 18 16 14 14 13 11 9 9 10 10 9 9 10 10 10 9 10 11 11 11 11 10 9 10
3 6 5 6 5 11 11 16 14 10 13 14 17 8 26 34 33 28 24 22 24 25 25 22 20 20 16 17 13 13 11 9 10 11 10 8 12 11 11 10 10 10 9 9 9 9 8 9 10
4 7 8 12 14 17 12 16 12 17 11 19 20 14 14 26 26 26 26 31 32 30 27 24 20 20 17 16 14 12 12 11 10 10 10 8 10 12 12 11 12 12 11 11 9 9 10 10 9
7 7 9 7 9 10 10 14 6 12 9 16 18 15 7 19 21 26 26 26 26 31 29 26 22 20 20 13 14 12 11 10 10 11 10 9 10 12 12 12 10 11 12 11 11 11 8 9 10
17 11 13 14 12 11 13 12 10 17 15 14 13 11 8 7 16 12 11 13 22 30 31 30 25 24 22 18 16 12 13 12 11 10 8 7 11 9 12 9 9 11 12 11 11 11 12 12 11
8 12 8 15 11 9 7 7 10 14 18 16 10 13 14 10 17 9 17 10 11 15 24 32 27 24 22 14 15 15 14 12 12 10 7 6 8 8 9 9 8 7 13 12 12 10 12 13 14
14 7 6 6 5 5 5 8 6 5 12 12 12 12 15 15 18 17 13 19 17 17 21 27 26 22 21 14 14 15 15 10 10 7 4 6 8 7 7 7 10 9 10 11 11 12 11 12 15
6 6 4 4 1 4 4 3 5 8 13 11 12 13 16 15 21 20 15 17 22 21 8 17 18 22 18 14 14 13 14 11 8 5 5 5 7 8 7 6 8 7 9 8 11 9 8 10 12
6 2 4 3 5 4 4 3 6 7 14 11 10 13 12 14 23 10 12 19 20 17 14 10 14 17 16 14 12 12 10 11 8 9 7 8 7 9 9 6 5 7 7 9 9 7 9 9 10
7 3 1 4 3 4 4 7 7 10 15 13 8 7 7 11 11 3 7 12 19 17 13 16 15 21 18 14 12 12 13 13 12 11 13 11 10 10 11 9 6 7 8 9 11 11 10 11 10
2 1 4 6 9 6 7 4 7 4 8 13 9 10 4 7 3 8 16 15 21 16 19 21 20 23 22 18 15 12 16 15 12 8 7 10 8 13 15 13 10 11 11 13 11 14 14 12 12
4 7 7 5 7 5 6 9 7 8 4 7 9 12 14 9 4 14 15 19 21 19 20 25 22 20 22 22 20 16 11 12 13 6 8 11 12 8 11 12 15 13 13 11 11 12 14 13 11
3 4 7 6 2 6 7 7 5 6 6 7 10 15 13 15 12 9 17 23 14 15 23 18 18 22 25 25 15 13 10 10 9 6 7 8 10 14 11 11 10 13 12 12 10 10 12 18 14
5 15 13 14 9 5 5 4 4 6 12 8 6 17 15 16 15 11 20 18 14 11 13 15 18 26 30 18 12 11 9 6 3 8 7 8 3 2 2 9 11 15 15 13 11 9 12 12 14
11 13 11 4 6 5 4 3 3 1 8 6 6 13 14 21 19 17 22 23 22 16 16 16 22 31 22 19 12 9 7 4 5 4 6 6 9 8 8 6 14 10 14 14 12 10 9 11 15
4 6 1 4 4 3 5 4 3 4 5 3 3 4 19 22 21 20 29 29 25 17 18 17 25 21 17 16 12 7 4 6 6 5 3 4 6 3 4 6 7 6 5 6 7 9 10 12 12
4 6 3 4 4 4 5 4 7 9 6 3 5 8 7 19 22 21 19 24 17 18 22 20 26 19 16 13 9 7 8 7 9 7 9 13 7 8 8 4 2 3 5 6 6 5 5 7 9
2 7 5 5 4 3 6 4 5 6 8 8 7 4 11 11 13 18 21 23 20 25 24 24 23 17 14 12 11 10 8 11 11 9 9 10 6 4 3 3 4 5 6 7 7 6 6 6 7
9 4 7 6 3 4 2 1 6 7 6 4 5 8 9 10 13 16 19 18 22 24 27 21 17 15 18 16 13 11 9 10 15 14 10 7 3 4 5 6 6 7 8 9 8 8 8 9 9
10 5 0 3 1 2 2 3 6 9 7 7 12 11 12 14 13 12 13 19 23 26 25 23 22 20 20 17 17 15 11 9 9 8 6 4 4 4 4 6 8 7 7 8 9 9 8 9 9
2 3 4 6 6 6 4 6 7 10 7 12 9 10 16 15 14 12 13 20 23 25 25 21 21 21 20 18 16 12 12 12 8 7 7 5 5 6 6 7 8 8 9 8 7 7 8 9 9
9 11 7 5 4 2 5 5 4 7 11 8 6 7 7 12 12 12 17 20 22 24 22 23 21 18 15 15 15 13 14 12 10 8 5 4 6 6 6 7 7 8 8 7 9 11 12 13 13
Wind_Direction
167 146 135 21 54 68 359 104 159 117 69 15 76 99 108 44 105 153 140 151 141 141 141 137 132 126 122 121 118 116 114 108 107 103 102 112 114 112 114 112 112 113 113 108 104 101 102 112 119
175 148 182 295 80 95 330 119 86 89 127 98 77 71 41 73 55 111 120 145 146 146 145 135 134 126 125 123 124 121 117 115 111 108 110 117 116 113 116 116 118 123 121 113 110 108 109 113 116
172 200 47 67 144 114 106 66 122 109 144 121 110 78 76 114 115 129 142 147 147 147 144 136 135 134 131 129 126 123 120 119 117 117 116 117 122 118 118 120 124 125 123 122 122 121 119 121 120
165 86 329 43 92 55 111 109 123 111 87 100 112 80 74 136 121 137 147 147 147 148 147 145 141 136 132 130 128 125 121 117 124 127 128 125 127 125 127 125 128 129 127 127 126 130 128 123 124
272 153 30 98 52 92 120 119 119 119 87 103 106 112 96 123 137 144 147 150 148 151 149 147 144 140 137 135 134 131 130 126 129 133 135 136 136 132 131 137 139 135 139 139 140 139 139 146 140
308 31 7 96 72 48 82 115 104 102 110 111 104 113 119 138 139 151 154 155 156 154 153 151 150 147 145 144 144 142 138 135 129 132 140 141 140 144 140 145 148 148 145 148 145 146 149 146 149
181 85 286 101 116 84 100 128 130 125 127 127 126 119 129 145 150 151 154 157 157 155 154 155 156 156 156 157 153 153 150 144 140 135 139 144 148 148 150 152 154 160 159 159 158 163 164 167 168
175 115 58 347 69 93 133 116 137 137 132 124 132 153 153 156 153 144 148 156 159 158 160 160 162 161 165 167 169 164 161 152 150 148 144 147 157 158 160 160 164 164 167 167 171 174 178 173 172
124 58 114 180 129 193 137 122 135 112 122 136 246 139 131 139 137 136 138 150 157 163 169 168 169 172 174 175 177 178 174 170 165 159 157 158 173 169 172 169 174 178 180 179 180 187 187 185 181
129 110 172 174 120 72 102 127 119 128 125 105 113 129 120 137 143 143 154 164 166 173 178 177 179 179 182 188 184 180 173 183 186 177 169 184 193 185 187 187 188 189 192 191 191 201 204 208 209
169 128 121 91 94 79 69 111 120 117 126 140 144 158 134 145 152 156 169 172 176 177 178 181 184 187 190 192 193 184 185 197 194 187 193 189 182 191 194 199 201 200 198 201 204 209 213 219 225
99 101 89 94 91 80 84 122 85 104 136 147 148 156 144 145 165 170 177 180 179 182 182 186 192 195 198 200 201 192 193 201 192 186 203 206 199 199 203 204 216 217 209 208 213 224 231 227 222
104 85 85 71 58 81 97 104 103 116 134 143 146 143 159 114 111 123 170 175 181 185 189 191 196 200 200 202 205 202 206 208 198 197 197 221 209 200 209 211 208 230 225 214 227 244 237 238 243
145 105 105 86 81 52 83 124 110 152 148 149 124 90 64 35 18 83 109 102 163 169 178 193 195 193 187 186 214 215 202 215 212 212 221 223 200 199 198 199 213 226 225 236 230 240 237 246 243
122 83 44 29 29 87 324 49 64 52 110 110 115 104 83 57 40 3 348 110 152 159 169 186 184 173 173 173 173 188 198 209 206 199 237 218 204 213 209 200 214 221 214 225 229 238 233 243 243
42 53 71 327 145 82 89 113 355 127 126 149 156 119 114 174 208 182 230 144 146 159 176 179 192 184 187 180 179 186 202 213 210 200 188 214 216 229 212 215 231 205 200 223 241 234 234 242 244
6 134 122 275 242 118 97 194 210 163 147 182 167 124 162 196 193 192 242 159 144 152 154 203 196 196 187 193 195 187 203 203 213 216 222 220 239 239 245 228 216 239 259 263 258 256 247 246 250
237 189 60 189 221 188 146 175 256 181 168 185 179 120 163 218 236 155 197 219 181 171 190 243 216 206 195 193 185 202 218 230 223 224 233 245 249 254 256 252 251 251 261 265 265 259 252 262 272
119 28 165 256 178 170 202 160 244 233 141 175 179 165 190 271 334 186 197 197 188 208 229 216 206 204 195 202 197 214 229 236 248 247 255 242 252 258 262 261 247 259 249 248 257 262 272 271 286
62 283 235 309 276 150 164 232 233 249 255 182 184 181 186 213 191 215 206 204 211 197 183 186 196 200 198 208 204 212 234 246 256 264 243 236 248 247 263 284 275 260 253 252 249 243 265 278 288
6 201 255 200 87 44 104 315 258 277 252 279 234 193 179 178 199 202 214 223 244 176 172 183 197 195 201 197 200 215 225 229 192 220 227 242 270 242 232 273 294 268 244 250 256 259 268 270 277
335 280 269 238 148 196 178 245 266 264 288 276 301 160 178 178 213 196 212 220 241 192 179 193 207 196 195 192 203 217 214 210 197 217 242 245 268 19 325 306 288 262 280 273 274 280 281 280 283
245 277 275 160 135 106 193 85 260 101 259 118 170 152 177 185 195 190 208 214 207 211 221 205 192 192 195 193 207 207 206 153 136 119 199 228 239 288 291 255 262 303 277 279 277 277 273 279 284
241 276 308 42 89 52 260 138 251 230 190 141 63 261 162 190 195 197 198 214 226 218 224 215 205 190 185 192 202 205 147 153 176 158 152 143 197 155 109 202 240 265 316 304 297 294 286 293 297
98 80 306 360 14 201 231 63 248 259 243 150 41 338 118 163 188 189 191 206 220 216 213 219 191 185 178 181 179 167 145 131 119 112 121 120 130 95 86 86 51 10 355 352 350 318 320 321 320
267 145 165 207 210 192 243 190 271 314 11 119 121 255 121 111 119 163 178 185 204 210 208 188 184 179 170 152 143 136 125 120 118 108 105 107 106 62 38 3 341 317 327 341 350 354 358 4 353
228 196 200 118 37 95 213 141 7 26 265 105 149 147 121 112 118 132 157 161 166 171 178 182 173 150 144 143 141 136 128 124 122 119 108 96 55 360 338 328 327 331 334 342 352 351 347 345 353
190 192 130 22 95 87 327 192 193 194 258 148 184 144 140 132 126 128 128 136 158 166 160 162 160 147 136 133 133 128 126 128 125 109 91 66 21 360 8 15 7 357 342 341 344 344 347 345 350
306 204 83 118 136 160 167 252 198 201 164 180 202 164 149 145 144 140 130 132 136 152 150 149 141 137 135 136 134 129 122 129 120 100 85 67 54 43 39 30 21 15 16 3 353 357 1 357 354
197 192 150 128 248 181 151 254 142 199 199 166 121 125 168 149 150 144 141 128 132 141 142 143 146 145 144 139 132 123 125 126 117 100 79 37 49 49 42 29 28 8 17 16 18 7 355 344 338